Location: Borovka
(49.7741°N, 14.5280°E)
Time: 01:01:31
(UTC+00:00)

BlueWalker 3 - Pass Details

Date: 29 January 2026
Orbit: 451 x 461 km, 53.2° (Epoch: 13 February)

Event Time Altitude Azimuth Distance (km) Brightness Sun altitude
Rises 17:29:08 0° 273° (W) 2,458 7.1 -15.7°
Reaches altitude 10° 17:31:19 10° 279° (W) 1,585 5.6 -16.1°
Maximum altitude 17:34:47 47° 355° (N) 605 2.3 -16.6°
Enters shadow 17:35:49 35° 43° (NE) 750 2.4 -16.8°
